This is the latest recevied weather packets stored in our database for station/object VK5TRM-14. If no packets are shown the sender has not sent any weather packets the latest 10 day(s).
| Time | Temp. | Humidity | Pressure | Rain* | Wind** | Luminosity | Snow |
|---|---|---|---|---|---|---|---|
| 1777761005 | 12.78° C | 79% | 1013 hPa | 12.19 mm | - | - | - |
| 1777760105 | 12.78° C | 79% | 1013 hPa | 12.19 mm | - | - | - |
| 1777759205 | 11.67° C | 83% | 1012.9 hPa | 12.19 mm | - | - | - |
| 1777758305 | 11.67° C | 83% | 1012.9 hPa | 12.19 mm | - | - | - |
| 1777757405 | 12.22° C | 82% | 1012.6 hPa | 12.19 mm | - | - | - |
| 1777756506 | 12.22° C | 82% | 1012.6 hPa | 12.19 mm | - | - | - |
| 1777755605 | 12.78° C | 81% | 1012.5 hPa | 12.19 mm | - | - | - |
| 1777754705 | 12.78° C | 81% | 1012.5 hPa | 12.19 mm | - | - | - |
| 1777753805 | 13.33° C | 83% | 1012.3 hPa | 12.19 mm | - | - | - |
| 1777752905 | 13.33° C | 83% | 1012.3 hPa | 12.19 mm | - | - | - |
| 1777752005 | 13.33° C | 83% | 1012.1 hPa | 12.19 mm | - | - | - |
| 1777751105 | 13.33° C | 83% | 1012.1 hPa | 12.19 mm | - | - | - |
| 1777750205 | 13.89° C | 82% | 1011.5 hPa | 12.19 mm | - | - | - |
| 1777749305 | 13.89° C | 82% | 1011.5 hPa | 12.19 mm | - | - | - |
| 1777748405 | 14.44° C | 82% | 1011.1 hPa | 12.19 mm | - | - | - |
| 1777747505 | 14.44° C | 82% | 1011.1 hPa | 12.19 mm | - | - | - |
| 1777746605 | 15° C | 84% | 1011.1 hPa | 12.19 mm | - | - | - |
| 1777745705 | 15° C | 84% | 1011.1 hPa | 12.19 mm | - | - | - |
| 1777744805 | 15° C | 83% | 1011.2 hPa | 12.19 mm | - | - | - |
| 1777743906 | 15° C | 83% | 1011.2 hPa | 12.19 mm | - | - | - |
| 1777743005 | 15° C | 85% | 1011.3 hPa | 12.19 mm | - | - | - |
| 1777742105 | 15° C | 85% | 1011.3 hPa | 12.19 mm | - | - | - |
| 1777741205 | 15.56° C | 86% | 1011.3 hPa | 12.19 mm | - | - | - |
| 1777740305 | 15.56° C | 86% | 1011.3 hPa | 12.19 mm | - | - | - |
| 1777739406 | 15.56° C | 89% | 1011.3 hPa | 12.19 mm | - | - | - |
* Rain since midnight (hover to see other rain measurements)
** Current wind speed in m/s (hover to see current wind gust speed)